�������l�o���
Date,Time,MP-1(��Sv/h),MP-2(��Sv/h),MP-3(��Sv/h),MP-4(��Sv/h),MP-5(��Sv/h),MP-6(��Sv/h),MP-7(��Sv/h),MP-8(��Sv/h),����,����(m/s),���J
2019/05/11,00:00,0.767,1.125,0.771,1.417,1.034,0.441,0.772,0.730,�k��,1.4,��
2019/05/11,00:10,0.768,1.124,0.772,1.418,1.036,0.441,0.773,0.728,�k�k��,2.9,��
2019/05/11,00:20,0.765,1.126,0.772,1.418,1.037,0.440,0.773,0.730,�k��,4.6,��
2019/05/11,00:30,0.767,1.128,0.772,1.416,1.036,0.441,0.772,0.730,�k��,4.8,��
2019/05/11,00:40,0.768,1.124,0.772,1.420,1.036,0.441,0.773,0.729,�k��,5.0,��
2019/05/11,00:50,0.768,1.125,0.773,1.419,1.036,0.440,0.772,0.730,�k��,5.6,��
2019/05/11,01:00,0.768,1.126,0.773,1.418,1.037,0.441,0.772,0.731,�k�k��,6.4,��
2019/05/11,01:10,0.768,1.125,0.773,1.418,1.038,0.441,0.772,0.729,�k�k��,6.3,��
2019/05/11,01:20,0.767,1.122,0.773,1.417,1.036,0.442,0.772,0.729,�k�k��,5.8,��
2019/05/11,01:30,0.765,1.124,0.770,1.419,1.037,0.440,0.773,0.729,�k�k��,5.3,��
2019/05/11,01:40,0.766,1.123,0.771,1.417,1.037,0.441,0.773,0.728,�k�k��,5.1,��
2019/05/11,01:50,0.766,1.123,0.771,1.419,1.037,0.440,0.774,0.729,�k�k��,5.6,��
2019/05/11,02:00,0.767,1.125,0.771,1.417,1.036,0.440,0.772,0.729,�k�k��,5.7,��
2019/05/11,02:10,0.765,1.126,0.770,1.417,1.037,0.442,0.771,0.729,�k�k��,5.4,��
2019/05/11,02:20,0.767,1.124,0.773,1.420,1.037,0.440,0.771,0.727,�k�k��,5.9,��
2019/05/11,02:30,0.767,1.124,0.771,1.419,1.039,0.438,0.770,0.729,�k�k��,5.7,��
2019/05/11,02:40,0.767,1.124,0.772,1.419,1.036,0.441,0.771,0.729,�k�k��,5.8,��
2019/05/11,02:50,0.767,1.124,0.773,1.421,1.037,0.440,0.772,0.729,�k�k��,5.2,��
2019/05/11,03:00,0.767,1.124,0.771,1.417,1.037,0.440,0.772,0.729,�k�k��,5.5,��
2019/05/11,03:10,0.766,1.122,0.772,1.418,1.035,0.440,0.770,0.728,�k�k��,5.8,��
2019/05/11,03:20,0.765,1.122,0.771,1.417,1.035,0.439,0.771,0.730,�k�k��,5.5,��
2019/05/11,03:30,0.766,1.121,0.773,1.420,1.034,0.441,0.772,0.730,�k,5.5,��
2019/05/11,03:40,0.766,1.123,0.772,1.417,1.037,0.441,0.772,0.729,�k,5.9,��
2019/05/11,03:50,0.764,1.123,0.772,1.418,1.038,0.441,0.771,0.730,�k,5.8,��
2019/05/11,04:00,0.768,1.123,0.773,1.419,1.037,0.441,0.771,0.728,�k,6.3,��
2019/05/11,04:10,0.764,1.124,0.771,1.417,1.034,0.441,0.771,0.728,�k,6.2,��
2019/05/11,04:20,0.765,1.121,0.771,1.417,1.036,0.440,0.771,0.727,�k,6.8,��
2019/05/11,04:30,0.766,1.124,0.770,1.419,1.039,0.438,0.772,0.729,�k,7.4,��
2019/05/11,04:40,0.765,1.123,0.771,1.419,1.036,0.440,0.772,0.727,�k�k��,7.3,��
2019/05/11,04:50,0.764,1.121,0.772,1.415,1.036,0.439,0.772,0.728,�k�k��,6.4,��
2019/05/11,05:00,0.764,1.123,0.770,1.418,1.035,0.438,0.771,0.729,�k�k��,6.6,��
2019/05/11,05:10,0.764,1.121,0.771,1.419,1.037,0.440,0.771,0.728,�k�k��,6.4,��
2019/05/11,05:20,0.765,1.122,0.770,1.420,1.035,0.440,0.770,0.728,�k�k��,6.0,��
2019/05/11,05:30,0.766,1.124,0.770,1.418,1.032,0.440,0.770,0.729,�k�k��,6.6,��
2019/05/11,05:40,0.764,1.124,0.771,1.417,1.037,0.440,0.772,0.728,�k�k��,7.6,��
2019/05/11,05:50,0.765,1.125,0.772,1.419,1.036,0.438,0.773,0.728,�k�k��,8.1,��
2019/05/11,06:00,0.764,1.125,0.771,1.418,1.035,0.439,0.770,0.729,�k�k��,7.8,��
2019/05/11,06:10,0.766,1.123,0.771,1.416,1.037,0.439,0.771,0.730,�k�k��,7.0,��
2019/05/11,06:20,0.766,1.125,0.771,1.418,1.036,0.439,0.769,0.729,�k�k��,6.1,��
2019/05/11,06:30,0.763,1.123,0.772,1.416,1.036,0.441,0.772,0.729,�k�k��,5.7,��
2019/05/11,06:40,0.766,1.124,0.772,1.417,1.037,0.440,0.770,0.730,�k�k��,5.5,��
2019/05/11,06:50,0.765,1.121,0.772,1.420,1.038,0.438,0.771,0.732,�k�k��,4.4,��
2019/05/11,07:00,0.768,1.124,0.771,1.419,1.038,0.438,0.772,0.731,�k�k��,4.5,��
2019/05/11,07:10,0.769,1.121,0.772,1.415,1.036,0.436,0.769,0.728,�k,3.8,��
2019/05/11,07:20,0.765,1.122,0.772,1.418,1.038,0.438,0.771,0.729,�k�k��,3.4,��
2019/05/11,07:30,0.768,1.122,0.772,1.419,1.036,0.436,0.772,0.730,�k,2.6,��
2019/05/11,07:40,0.765,1.123,0.771,1.418,1.036,0.436,0.772,0.730,�k,2.8,��
2019/05/11,07:50,0.765,1.121,0.772,1.419,1.038,0.437,0.773,0.731,�k,2.3,��
2019/05/11,08:00,0.765,1.119,0.772,1.419,1.036,0.438,0.770,0.730,�k,2.9,��
2019/05/11,08:10,0.766,1.121,0.771,1.419,1.038,0.436,0.771,0.728,�k,3.0,��
2019/05/11,08:20,0.765,1.122,0.769,1.421,1.037,0.437,0.770,0.729,�k,3.1,��
2019/05/11,08:30,0.766,1.121,0.769,1.419,1.036,0.436,0.772,0.728,�k,3.0,��
2019/05/11,08:40,0.763,1.121,0.770,1.418,1.035,0.437,0.771,0.727,�k,3.4,��
2019/05/11,08:50,0.766,1.120,0.770,1.416,1.036,0.436,0.769,0.727,�k,4.1,��
2019/05/11,09:00,0.765,1.124,0.768,1.416,1.036,0.437,0.769,0.726,�k,4.3,��
2019/05/11,09:10,0.766,1.118,0.769,1.418,1.037,0.438,0.770,0.728,�k�k��,4.1,��
2019/05/11,09:20,0.763,1.120,0.769,1.420,1.035,0.436,0.770,0.726,�k,4.6,��
2019/05/11,09:30,0.766,1.123,0.769,1.420,1.035,0.436,0.768,0.727,�k�k��,5.1,��
2019/05/11,09:40,0.764,1.125,0.769,1.417,1.037,0.437,0.770,0.727,�k�k��,5.6,��
2019/05/11,09:50,0.765,1.125,0.769,1.420,1.036,0.437,0.770,0.728,�k,6.6,��
2019/05/11,10:00,0.765,1.124,0.770,1.421,1.034,0.437,0.771,0.726,�k�k��,6.4,��
2019/05/11,10:10,0.765,1.125,0.768,1.421,1.037,0.437,0.771,0.728,�k�k��,6.3,��
2019/05/11,10:20,0.766,1.125,0.770,1.420,1.036,0.437,0.768,0.727,�k�k��,7.2,��
2019/05/11,10:30,0.766,1.123,0.769,1.419,1.037,0.437,0.770,0.728,�k,6.9,��
2019/05/11,10:40,0.763,1.123,0.770,1.421,1.038,0.436,0.771,0.727,�k�k��,6.5,��
2019/05/11,10:50,0.765,1.123,0.770,1.421,1.039,0.437,0.770,0.726,�k�k��,6.4,��
2019/05/11,11:00,0.763,1.122,0.770,1.420,1.040,0.438,0.771,0.728,�k�k��,6.1,��
2019/05/11,11:10,0.765,1.123,0.769,1.420,1.041,0.437,0.771,0.727,�k�k��,6.2,��
2019/05/11,11:20,0.767,1.125,0.770,1.419,1.038,0.437,0.770,0.730,�k�k��,5.7,��
2019/05/11,11:30,0.767,1.126,0.769,1.417,1.040,0.437,0.771,0.728,�k�k��,5.6,��
2019/05/11,11:40,0.766,1.124,0.771,1.415,1.040,0.436,0.771,0.727,�k�k��,5.3,��
2019/05/11,11:50,0.765,1.124,0.771,1.417,1.038,0.437,0.771,0.728,�k�k��,5.5,��
2019/05/11,12:00,0.768,1.127,0.767,1.417,1.040,0.437,0.769,0.728,�k�k��,5.3,��
2019/05/11,12:10,0.766,1.129,0.771,1.418,1.041,0.438,0.770,0.729,�k�k��,4.6,��
2019/05/11,12:20,0.768,1.126,0.771,1.418,1.039,0.439,0.770,0.726,�k�k��,4.3,��
2019/05/11,12:30,0.768,1.126,0.771,1.417,1.039,0.438,0.769,0.728,�k��,2.8,��
2019/05/11,12:40,0.768,1.127,0.771,1.416,1.040,0.438,0.768,0.727,�k��,3.0,��
2019/05/11,12:50,0.768,1.123,0.772,1.416,1.043,0.437,0.770,0.728,���k��,3.3,��
2019/05/11,13:00,0.766,1.126,0.772,1.420,1.039,0.436,0.771,0.727,�k��,3.1,��
2019/05/11,13:10,0.767,1.129,0.772,1.421,1.041,0.437,0.770,0.727,���k��,2.8,��
2019/05/11,13:20,0.766,1.124,0.770,1.422,1.041,0.438,0.770,0.728,���k��,3.5,��
2019/05/11,13:30,0.768,1.124,0.771,1.420,1.040,0.438,0.771,0.728,���k��,3.0,��
2019/05/11,13:40,0.767,1.127,0.769,1.421,1.042,0.437,0.770,0.728,�k��,3.3,��
2019/05/11,13:50,0.768,1.127,0.771,1.421,1.040,0.438,0.770,0.726,�k��,3.4,��
2019/05/11,14:00,0.766,1.123,0.772,1.417,1.042,0.436,0.770,0.728,�k��,3.9,��
2019/05/11,14:10,0.767,1.122,0.772,1.417,1.044,0.437,0.770,0.728,���k��,3.2,��
2019/05/11,14:20,0.766,1.123,0.771,1.417,1.042,0.437,0.771,0.728,��,2.2,��
2019/05/11,14:30,0.768,1.126,0.771,1.419,1.044,0.437,0.770,0.729,��,2.5,��
2019/05/11,14:40,0.766,1.125,0.772,1.420,1.041,0.436,0.771,0.727,���쓌,2.3,��
2019/05/11,14:50,0.767,1.124,0.773,1.419,1.042,0.437,0.769,0.728,���k��,1.5,��
2019/05/11,15:00,0.769,1.126,0.772,1.418,1.044,0.438,0.770,0.728,�k��,2.5,��
2019/05/11,15:10,0.767,1.129,0.771,1.421,1.040,0.436,0.770,0.729,�k��,1.7,��
2019/05/11,15:20,0.768,1.128,0.771,1.420,1.042,0.437,0.770,0.728,��,1.7,��
2019/05/11,15:30,0.767,1.125,0.770,1.420,1.041,0.439,0.771,0.728,�쓌,1.4,��
2019/05/11,15:40,0.768,1.127,0.770,1.417,1.043,0.438,0.771,0.728,��쓌,1.5,��
2019/05/11,15:50,0.765,1.128,0.772,1.421,1.042,0.439,0.770,0.728,��쓌,1.4,��
2019/05/11,16:00,0.767,1.127,0.770,1.421,1.042,0.438,0.769,0.727,�쓌,2.6,��
2019/05/11,16:10,0.768,1.129,0.772,1.419,1.043,0.440,0.771,0.726,�쓌,2.6,��
2019/05/11,16:20,0.765,1.129,0.773,1.419,1.041,0.438,0.770,0.727,��쓌,4.0,��
2019/05/11,16:30,0.765,1.131,0.773,1.419,1.045,0.439,0.771,0.727,��쓌,4.8,��
2019/05/11,16:40,0.765,1.130,0.772,1.419,1.044,0.440,0.770,0.729,��쓌,4.5,��
2019/05/11,16:50,0.765,1.133,0.772,1.420,1.041,0.438,0.768,0.726,�쓌,3.3,��
2019/05/11,17:00,0.767,1.130,0.772,1.422,1.041,0.439,0.770,0.729,�쓌,2.6,��
2019/05/11,17:10,0.767,1.132,0.771,1.419,1.041,0.440,0.771,0.728,���쓌,3.1,��
2019/05/11,17:20,0.767,1.134,0.768,1.421,1.040,0.438,0.770,0.728,��,2.2,��
2019/05/11,17:30,0.768,1.132,0.772,1.422,1.041,0.439,0.771,0.731,�k��,2.9,��
2019/05/11,17:40,0.766,1.132,0.773,1.421,1.040,0.441,0.771,0.729,�k�k��,3.7,��
2019/05/11,17:50,0.768,1.133,0.774,1.420,1.043,0.438,0.770,0.730,�k�k��,4.4,��
2019/05/11,18:00,0.770,1.134,0.775,1.422,1.040,0.440,0.769,0.731,�k,4.2,��
2019/05/11,18:10,0.770,1.131,0.775,1.421,1.041,0.438,0.769,0.731,�k,4.0,��
2019/05/11,18:20,0.767,1.133,0.773,1.424,1.041,0.441,0.769,0.730,�k,4.0,��
2019/05/11,18:30,0.768,1.132,0.773,1.425,1.044,0.438,0.769,0.731,�k�k��,4.4,��
2019/05/11,18:40,0.768,1.133,0.774,1.423,1.043,0.439,0.770,0.730,�k,3.9,��
2019/05/11,18:50,0.768,1.130,0.774,1.424,1.044,0.438,0.771,0.730,�k,4.8,��
2019/05/11,19:00,0.768,1.131,0.775,1.423,1.044,0.438,0.771,0.729,�k�k��,5.6,��
2019/05/11,19:10,0.768,1.133,0.774,1.422,1.041,0.440,0.772,0.729,�k�k��,6.5,��
2019/05/11,19:20,0.767,1.132,0.773,1.420,1.044,0.439,0.771,0.731,�k,6.0,��
2019/05/11,19:30,0.767,1.128,0.774,1.422,1.043,0.438,0.770,0.728,�k,5.5,��
2019/05/11,19:40,0.767,1.130,0.773,1.423,1.046,0.438,0.771,0.730,�k,5.9,��
2019/05/11,19:50,0.768,1.133,0.774,1.421,1.043,0.438,0.770,0.730,�k,6.0,��
2019/05/11,20:00,0.769,1.131,0.774,1.425,1.043,0.438,0.767,0.730,�k,5.9,��
2019/05/11,20:10,0.770,1.132,0.777,1.424,1.045,0.438,0.770,0.730,�k,6.2,��
2019/05/11,20:20,0.768,1.129,0.775,1.421,1.042,0.437,0.770,0.731,�k,6.5,��
2019/05/11,20:30,0.768,1.129,0.773,1.422,1.042,0.437,0.769,0.729,�k,5.7,��
2019/05/11,20:40,0.768,1.131,0.773,1.422,1.043,0.437,0.770,0.731,�k,5.6,��
2019/05/11,20:50,0.766,1.131,0.774,1.423,1.043,0.438,0.771,0.729,�k,5.5,��
2019/05/11,21:00,0.768,1.128,0.771,1.422,1.044,0.438,0.771,0.731,�k,4.9,��
2019/05/11,21:10,0.768,1.129,0.773,1.423,1.044,0.438,0.771,0.730,�k,4.5,��
2019/05/11,21:20,0.767,1.130,0.773,1.422,1.043,0.438,0.770,0.729,�k,4.6,��
2019/05/11,21:30,0.767,1.129,0.773,1.422,1.044,0.437,0.770,0.731,�k,4.7,��
2019/05/11,21:40,0.768,1.128,0.773,1.422,1.042,0.437,0.770,0.730,�k,4.1,��
2019/05/11,21:50,0.768,1.127,0.774,1.423,1.042,0.438,0.770,0.730,�k�k��,4.2,��
2019/05/11,22:00,0.767,1.126,0.773,1.422,1.043,0.437,0.770,0.730,�k,4.7,��
2019/05/11,22:10,0.768,1.130,0.772,1.423,1.042,0.435,0.769,0.731,�k�k��,4.8,��
2019/05/11,22:20,0.766,1.130,0.772,1.420,1.043,0.436,0.770,0.730,�k�k��,4.2,��
2019/05/11,22:30,0.767,1.131,0.774,1.423,1.045,0.438,0.769,0.731,�k�k��,4.9,��
2019/05/11,22:40,0.768,1.130,0.772,1.422,1.041,0.437,0.771,0.729,�k�k��,4.5,��
2019/05/11,22:50,0.767,1.128,0.772,1.422,1.042,0.438,0.768,0.731,�k�k��,3.4,��
2019/05/11,23:00,0.768,1.130,0.773,1.423,1.042,0.435,0.770,0.729,�k�k��,3.5,��
2019/05/11,23:10,0.769,1.128,0.774,1.422,1.041,0.438,0.770,0.730,�k�k��,3.5,��
2019/05/11,23:20,0.768,1.128,0.772,1.424,1.042,0.438,0.771,0.730,�k�k��,3.5,��
2019/05/11,23:30,0.768,1.128,0.773,1.418,1.043,0.436,0.772,0.731,�k�k��,3.8,��
2019/05/11,23:40,0.766,1.129,0.773,1.420,1.043,0.436,0.770,0.730,�k��,3.1,��
2019/05/11,23:50,0.768,1.127,0.772,1.422,1.043,0.435,0.770,0.730,�k�k��,2.6,��
